Regional Weather Roundup
Issued by NWS

Home | Current Version | Previous Version | Text Only | Print | Product List | Glossary On
Versions: 1 2 3 4 5 6 7 8 9 10 11 12 13 14 15 16 17 18 19 20 21 22 23 24 25 26 27 28 29 30 31 32 33 34 35 36 37 38 39 40 41 42 43 44 45 46 47 48 49 50
000
ASUS45 KREV 041510
RWRNV
NEVADA REGIONAL WEATHER ROUNDUP
NATIONAL WEATHER SERVICE RENO NV
700 AM PST WED MAR 04 2015

NOTE: "FAIR" INDICATES FEW OR NO CLOUDS BELOW 12,000 FEET WITH NO
SIGNIFICANT WEATHER AND/OR OBSTRUCTIONS TO VISIBILITY.

NVZ001-003-004-041600-
WESTERN NEVADA

CITY           SKY/WX    TMP DP  RH WIND       PRES   REMARKS
RENO           PTCLDY    25  17  72 CALM      30.18R
CARSON CITY    FAIR      23  18  80 CALM      30.19R
MINDEN         FAIR      16  10  79 CALM      30.20
SLIDE MTN        N/A     27  -6  24 E17         N/A
PYRAMID LAKE     N/A     32 N/A N/A W7          N/A
FALLON         PTCLDY    21  16  81 S3        30.19R
LOVELOCK       PTCLDY    16  10  77 CALM      30.19R
HAWTHORNE      CLEAR     27  18  69 CALM      30.20R
$$

NVZ002-CAZ072-073-041600-
NORTHERN AND CENTRAL SIERRA

CITY           SKY/WX    TMP DP  RH WIND       PRES   REMARKS
S. LAKE TAHOE  PTCLDY    17  10  74 VRB3      30.12R
TRUCKEE        PTCLDY     9   7  92 CALM      30.14S
SQUAW VLY 8000   N/A     19  10  68 S2          N/A
SUSANVILLE     CLEAR     21  18  86 CALM      30.19R
BLUE CANYON    CLEAR     36   3  25 NE7       30.07R
MAMMOTH LAKES  FAIR      12   3  67 N5        30.11R
BRIDGEPORT     FAIR       9   3  77 CALM      30.13R
$$

NVZ030-031-036-041600-
NORTHERN NEVADA

CITY           SKY/WX    TMP DP  RH WIND       PRES   REMARKS
ELKO           CLEAR     15  11  83 CALM      30.16R
WINNEMUCCA     MOCLDY    12   8  84 N3        30.21R
WENDOVER       PTCLDY    27  10  50 SW6       30.16R
$$

NVZ035-037-041600-
CENTRAL NEVADA

CITY           SKY/WX    TMP DP  RH WIND       PRES   REMARKS
ELY            PTCLDY     4   0  83 S12       30.13R WCI -12
$$

NVZ013-014-041600-
SOUTH CENTRAL NEVADA

CITY           SKY/WX    TMP DP  RH WIND       PRES   REMARKS
TONOPAH        PTCLDY    22  10  60 N12       30.14R
$$

NVZ017-020-022-041600-
SOUTHERN NEVADA

CITY           SKY/WX    TMP DP  RH WIND       PRES   REMARKS
LAS VEGAS      CLEAR     45  15  30 N15       30.08R
N. LAS VEGAS   CLEAR     42  16  34 N15       30.11R
NELLIS AFB     CLEAR     42  20  41 NW6       30.12R
HENDERSON      CLEAR     40  19  43 NE9       30.12R
MERCURY        CLEAR     35  18  49 CALM      30.12R
$$


USA.gov is the U.S. government's official web portal to all federal, state and local government web resources and services.